Corpus Christi NAS, TX

8:30 PM CDT on October 21, 2017 (GMT -0500)
Corpus Christi Naval Air Station-Truax

Weather History for KNGP - January, 2013

Change the Weather History Date:

Saturday, January 12, 2013

  Actual Average Record
Temperature  
Mean Temperature 78 °F -  
Max Temperature 86 °F 64 °F 77 °F (2017)
Min Temperature 69 °F 48 °F 44 °F (2015)
Cooling Degree Days 12    
Growing Degree Days 28 (Base 50)    
Moisture  
Dew Point 69 °F    
Average Humidity 70    
Maximum Humidity 100    
Minimum Humidity 55    
Precipitation  
Precipitation 0.00 in - - ()
Sea Level Pressure  
Sea Level Pressure 29.76 in    
Wind  
Wind Speed 13 mph (SSE)    
Max Wind Speed 24 mph    
Max Gust Speed 33 mph    
Visibility 4 miles    
Events      
Averages and records for this station are not official NWS values.
T = Trace of Precipitation, MM = Missing Value Source: NWS Daily Summary

Daily Weather History Graph

Daily Weather History Graph

Search for Another Location

Airport or City:

Trip Planner

Search our weather history database for the weather conditions in past years. The results will help you decide how hot, cold, wet, or windy it might be!

Date:

Astronomy

Jan. 12, 2013 Rise Set
Actual Time 7:21 AM CST 5:54 PM CST
Civil Twilight 6:56 AM CST 6:19 PM CST
Nautical Twilight 6:27 AM CST 6:48 PM CST
Astronomical Twilight 5:58 AM CST 7:16 PM CST
Moon 7:49 AM CST (1/12) 7:13 PM CST (1/12)
Length of Visible Light 11h 23m
Length of Day
10h 32m
New Moon, 1% of the Moon is Illuminated
Jan 12
New Moon
Jan 18
First Quarter
Jan 26
Full
Feb 3
Last Quarter
Feb 10
New

Hourly Weather History & Observations

Time (CST) Temp. Heat Index Dew Point Humidity Pressure Visibility Wind Dir Wind Speed Gust Speed Precip Events Conditions
12:10 AM 69.8 °F - 69.8 °F 100% 29.85 in 1.2 mi South 9.2 mph - N/A   Overcast
12:15 AM 69.8 °F - 69.8 °F 100% 29.85 in 2.0 mi South 9.2 mph - N/A   Overcast
12:38 AM 73.4 °F - 69.8 °F 88% 29.85 in 1.5 mi South 8.1 mph - N/A   Overcast
12:46 AM 73.4 °F - 68.0 °F 83% 29.85 in 1.2 mi South 6.9 mph - N/A   Haze
12:54 AM 75.2 °F - 68.0 °F 78% 29.85 in 1.0 mi South 8.1 mph - N/A   Haze
12:56 AM 75.9 °F - 68.0 °F 76% 29.85 in 1.0 mi South 6.9 mph - N/A   Haze
1:16 AM 78.8 °F - 68.0 °F 69% 29.84 in 0.8 mi SSE 8.1 mph - N/A   Haze
1:46 AM 86.0 °F 89.4 °F 68.0 °F 55% 29.83 in 0.5 mi SSE 6.9 mph - N/A   Haze
1:53 AM 84.2 °F 87.3 °F 68.0 °F 58% 29.83 in 0.8 mi SSE 8.1 mph - N/A   Haze
1:56 AM 84.9 °F 88.2 °F 68.0 °F 57% 29.83 in 0.8 mi SSE 8.1 mph - N/A   Haze
2:02 AM 86.0 °F 90.4 °F 69.8 °F 58% 29.83 in 1.2 mi SSE 9.2 mph - N/A   Haze
2:10 AM 84.2 °F 88.4 °F 69.8 °F 62% 29.83 in 0.8 mi SSE 10.4 mph - N/A   Haze
2:52 AM 84.0 °F 87.8 °F 69.1 °F 61% 29.85 in 1.2 mi South 9.2 mph - N/A   Haze
3:29 AM 82.4 °F 85.4 °F 68.0 °F 62% 29.82 in 1.0 mi SSE 9.2 mph - 0.00 in   Haze
3:38 AM 84.2 °F 88.4 °F 69.8 °F 62% 29.82 in 1.2 mi SSE 10.4 mph - 0.00 in   Haze
3:45 AM 82.4 °F 86.3 °F 69.8 °F 66% 29.81 in 1.8 mi SSE 12.7 mph - 0.00 in   Haze
3:56 AM 82.9 °F 86.5 °F 69.1 °F 63% 29.81 in 2.5 mi SSE 13.8 mph - 0.00 in   Haze
4:23 AM 80.6 °F 83.9 °F 69.8 °F 70% 29.78 in 4.0 mi SSE 16.1 mph - N/A   Haze
4:51 AM 82.4 °F 86.3 °F 69.8 °F 66% 29.77 in 6.0 mi SSE 16.1 mph 21.9 mph N/A   Haze
4:56 AM 82.0 °F 85.5 °F 69.1 °F 65% 29.77 in 6.0 mi SSE 16.1 mph 23.0 mph N/A   Haze
5:05 AM 71.6 °F - 69.8 °F 94% 29.77 in 6.0 mi SSE 15.0 mph 24.2 mph N/A   Overcast
5:29 AM 80.6 °F 83.9 °F 69.8 °F 70% 29.76 in 5.0 mi SSE 16.1 mph 33.4 mph N/A   Haze
5:46 AM 80.6 °F 83.9 °F 69.8 °F 70% 29.77 in 5.0 mi SSE 17.3 mph 24.2 mph N/A   Haze
5:56 AM 82.0 °F 85.9 °F 70.0 °F 67% 29.78 in 5.0 mi SSE 13.8 mph - N/A   Haze
6:11 AM 82.4 °F 86.3 °F 69.8 °F 66% 29.77 in 5.0 mi SSE 16.1 mph - N/A   Haze
6:20 AM 80.6 °F 83.9 °F 69.8 °F 70% 29.77 in 5.0 mi SSE 18.4 mph - N/A   Haze
6:38 AM 80.6 °F 83.9 °F 69.8 °F 70% 29.77 in 4.0 mi SSE 17.3 mph 25.3 mph N/A   Haze
6:56 AM 80.1 °F 82.9 °F 69.1 °F 69% 29.77 in 5.0 mi SSE 19.6 mph 26.5 mph N/A   Haze
7:56 AM 80.1 °F 82.9 °F 69.1 °F 69% 29.77 in 5.0 mi SSE 19.6 mph 28.8 mph N/A   Haze
8:32 AM 80.6 °F 83.9 °F 69.8 °F 70% 29.79 in 4.0 mi SSE 20.7 mph 27.6 mph N/A   Haze
8:56 AM 80.1 °F 82.9 °F 69.1 °F 69% 29.79 in 4.0 mi SSE 19.6 mph 27.6 mph N/A   Haze
9:56 AM 81.0 °F 84.1 °F 69.1 °F 67% 29.79 in 4.0 mi SSE 21.9 mph - N/A   Haze
10:42 AM 80.6 °F 83.9 °F 69.8 °F 70% 29.78 in 5.0 mi South 21.9 mph 29.9 mph N/A   Haze
10:56 AM 73.9 °F - 69.1 °F 85% 29.78 in 5.0 mi South 19.6 mph 29.9 mph N/A   Haze
11:56 AM 78.1 °F - 69.1 °F 74% 29.76 in 5.0 mi South 20.7 mph 31.1 mph N/A   Haze
12:56 PM 81.0 °F 84.1 °F 69.1 °F 67% 29.72 in 6.0 mi South 21.9 mph 31.1 mph N/A   Haze
1:56 PM 82.0 °F 85.5 °F 69.1 °F 65% 29.71 in 6.0 mi South 20.7 mph 28.8 mph N/A   Haze
2:13 PM 82.4 °F 86.3 °F 69.8 °F 66% 29.69 in 7.0 mi South 20.7 mph 28.8 mph N/A   Scattered Clouds
2:56 PM 82.0 °F 85.5 °F 69.1 °F 65% 29.67 in 7.0 mi South 21.9 mph 29.9 mph N/A   Clear
3:12 PM 82.4 °F 86.3 °F 69.8 °F 66% 29.66 in 7.0 mi South 19.6 mph 32.2 mph N/A   Scattered Clouds
3:24 PM 80.6 °F 83.9 °F 69.8 °F 70% 29.66 in 6.0 mi South 18.4 mph 31.1 mph N/A   Haze
3:52 PM 78.8 °F - 69.8 °F 74% 29.66 in 4.0 mi SSE 24.2 mph 32.2 mph N/A   Haze
3:56 PM 79.0 °F - 69.1 °F 72% 29.67 in 3.0 mi South 20.7 mph 32.2 mph N/A   Haze
4:56 PM 81.0 °F 84.4 °F 70.0 °F 69% 29.68 in 5.0 mi SSE 23.0 mph 31.1 mph N/A   Haze
5:56 PM 81.0 °F 84.4 °F 70.0 °F 69% 29.66 in 5.0 mi SSE 21.9 mph 26.5 mph N/A   Haze
6:40 PM 80.6 °F 83.9 °F 69.8 °F 70% 29.68 in 6.0 mi South 20.7 mph 28.8 mph N/A   Haze
6:56 PM 80.1 °F 83.2 °F 70.0 °F 71% 29.66 in 7.0 mi SSE 20.7 mph 31.1 mph N/A   Overcast
7:56 PM 80.1 °F 82.9 °F 69.1 °F 69% 29.68 in 6.0 mi South 17.3 mph 26.5 mph N/A   Haze
8:56 PM 80.1 °F 82.9 °F 69.1 °F 69% 29.68 in 6.0 mi South 18.4 mph 28.8 mph N/A   Haze
9:56 PM 81.0 °F 84.1 °F 69.1 °F 67% 29.68 in 7.0 mi South 19.6 mph 28.8 mph N/A   Overcast
10:22 PM 82.4 °F 86.3 °F 69.8 °F 66% 29.69 in 7.0 mi South 17.3 mph 24.2 mph N/A   Overcast
10:56 PM 81.0 °F 84.1 °F 69.1 °F 67% 29.69 in 6.0 mi South 16.1 mph 25.3 mph N/A   Haze
11:56 PM 82.9 °F 87.0 °F 70.0 °F 65% 29.70 in 6.0 mi South 15.0 mph 21.9 mph N/A   Haze